Wind_Speed
17 18 17 16 15 14 14 14 14 13 13 13 14 14 14 15 15 16 16 16 16 15 14 12 12 12 13 14 14 14 13 13 13 14 14 14 14 14 14 14 13 13 12 12 11 10 9 9 9 9 9 9 8 7 7 7 8 9 9 11 12 13 14 15 16 17 18 18 19 19 20 20 20 19 17 15 15 16 17 19 20 22 23 24 25
19 19 18 17 16 15 15 14 13 12 11 11 11 11 11 11 12 12 12 13 13 13 13 11 10 10 10 11 11 12 12 12 12 12 12 12 12 12 12 12 11 11 11 10 10 9 9 8 8 8 8 7 6 6 5 5 5 6 7 8 10 11 12 13 14 15 16 16 17 18 18 18 18 18 16 13 12 14 16 18 19 21 22 23 23
20 19 19 18 17 16 15 13 12 11 10 9 9 8 8 8 8 8 8 9 9 9 10 9 9 8 7 8 9 10 10 11 11 11 11 11 11 11 11 10 10 9 9 9 8 7 7 6 6 6 5 5 4 4 3 3 3 3 5 7 8 10 11 12 13 15 16 16 16 17 17 16 15 15 13 10 8 10 13 15 17 19 20 20 20
21 20 19 17 16 15 13 13 12 11 9 8 7 7 7 6 6 5 5 5 5 6 6 6 6 6 6 6 6 7 8 9 9 10 10 10 10 10 10 10 9 9 8 7 7 6 6 5 5 4 4 4 3 2 1 0 1 3 4 6 7 9 11 12 14 15 16 16 16 16 16 15 14 12 11 8 6 6 9 12 14 16 17 18 18
22 21 19 17 16 15 13 13 12 11 10 9 7 7 7 6 6 5 4 3 2 2 2 2 3 3 4 4 4 4 5 5 7 7 8 8 9 9 9 9 9 9 9 8 8 8 7 7 6 5 4 4 3 2 2 2 3 3 5 6 7 9 10 12 13 15 15 15 15 15 14 14 12 11 9 7 4 3 6 9 11 12 13 14 15
24 23 21 19 17 16 15 14 13 12 11 11 10 9 9 8 7 7 6 5 4 3 3 2 2 2 2 3 4 3 3 3 3 4 4 5 6 6 7 7 8 8 8 8 9 9 8 8 7 7 6 5 4 4 3 3 4 4 5 6 7 8 9 11 12 13 14 14 14 13 13 13 12 11 8 5 2 1 2 5 7 8 9 10 11
26 25 23 22 20 18 17 16 15 14 14 13 12 12 11 10 9 9 9 9 8 8 7 7 6 6 5 5 5 5 5 4 4 4 4 4 4 4 5 6 6 6 6 6 6 7 7 7 6 6 6 5 4 3 2 1 2 2 4 5 6 7 9 10 12 13 13 12 11 10 9 11 12 13 11 6 2 1 1 1 1 3 4 6 7
28 27 25 23 21 20 19 18 17 16 16 15 14 13 13 12 12 11 11 11 11 11 10 10 10 10 9 9 8 8 8 8 7 7 6 6 6 6 6 6 6 6 6 5 5 5 5 5 5 4 4 3 3 2 1 1 1 2 3 5 6 7 8 9 10 11 11 10 10 9 8 8 9 11 13 11 6 2 2 2 2 2 3 3 4
30 29 28 26 23 22 21 21 20 19 18 17 16 15 14 14 13 13 13 14 14 13 12 12 12 12 12 12 12 11 11 11 10 10 10 10 10 9 9 9 9 9 8 8 7 7 7 7 7 6 6 5 5 4 4 3 2 2 3 3 4 4 4 3 4 5 6 7 9 8 7 7 7 9 12 14 12 7 4 3 4 4 4 5 5
33 32 30 28 26 25 25 24 23 21 21 20 20 19 18 17 16 15 15 15 14 14 14 13 14 14 14 15 16 16 16 15 14 13 13 13 13 13 12 12 12 11 11 11 11 11 11 11 10 10 9 9 9 9 8 7 7 6 6 5 4 4 5 5 5 5 5 6 8 8 7 7 6 7 10 14 15 13 10 7 6 6 7 7 7
36 35 33 32 31 30 29 28 26 25 25 25 25 24 22 21 20 18 18 17 17 17 17 16 16 16 17 17 18 19 19 18 17 17 16 16 16 16 16 16 15 15 15 15 15 15 14 14 13 12 12 12 12 12 11 11 10 9 8 7 6 6 6 6 6 7 7 7 9 10 10 9 7 8 10 13 16 17 16 14 12 11 11 11 11
39 38 37 36 35 34 32 31 29 29 29 29 29 27 25 24 23 21 21 21 22 23 22 21 20 19 20 21 21 22 22 22 21 19 19 18 19 19 20 20 19 19 19 19 19 18 17 15 14 14 13 14 14 13 13 13 12 11 10 9 8 8 7 7 7 8 9 9 9 11 12 12 11 11 13 14 16 18 18 18 18 17 16 16 15
42 41 40 39 38 37 35 34 33 33 33 32 31 30 27 25 24 24 23 24 25 24 24 24 24 24 24 24 25 25 24 24 24 23 22 22 21 22 22 23 22 22 22 22 22 21 19 17 16 15 15 15 15 14 15 14 12 12 11 11 11 10 9 9 9 9 10 11 11 12 13 14 14 15 16 17 18 19 19 20 21 21 21 20 21
44 44 42 41 40 40 39 38 37 37 36 34 34 33 31 29 27 27 27 27 27 27 27 27 28 28 27 26 27 27 26 26 26 27 26 26 25 24 25 25 25 25 24 25 25 24 21 19 18 17 17 16 16 16 15 14 13 13 13 14 14 14 13 12 12 13 14 14 14 14 15 17 19 20 21 21 20 20 21 21 22 23 23 23 23
46 46 45 44 43 43 42 40 40 40 39 37 37 36 35 33 31 30 29 29 29 30 31 32 33 33 31 29 28 28 29 29 29 29 30 29 28 26 26 27 27 27 27 28 28 27 25 22 20 19 18 17 17 17 16 15 15 14 14 14 14 14 14 15 15 17 18 18 18 18 16 17 20 24 25 25 24 24 24 24 24 23 24 25 25
49 48 48 47 46 44 43 42 42 42 41 41 40 39 39 38 36 35 34 32 32 32 33 35 36 36 35 33 32 31 32 33 33 33 33 32 31 29 28 28 28 28 29 30 31 31 29 27 24 22 21 20 18 17 17 17 17 17 15 14 13 14 15 17 18 20 21 21 22 22 20 19 21 24 25 25 26 26 27 28 28 27 26 27 27
51 50 50 49 48 46 45 45 44 44 44 44 43 42 42 41 40 39 38 36 34 34 35 37 38 38 38 38 37 37 36 36 36 36 35 35 35 33 32 30 29 29 30 31 32 33 33 33 30 27 25 23 22 19 18 18 19 19 18 17 17 17 18 20 22 23 24 23 23 23 23 23 23 24 24 24 24 25 26 27 28 29 28 27 27
53 52 51 51 50 48 46 46 46 45 44 44 45 45 43 42 42 42 40 39 39 39 40 41 40 39 40 41 41 41 41 41 41 40 39 38 37 36 35 34 33 32 32 32 33 34 36 36 36 34 30 28 27 25 23 22 22 22 21 20 21 21 22 23 26 26 26 26 25 25 26 27 27 25 25 26 27 27 26 27 28 28 28 28 30
55 53 52 52 51 49 48 48 48 47 45 45 47 47 46 46 47 46 44 43 45 46 46 46 45 44 42 42 42 43 44 45 45 45 44 42 41 40 38 37 36 35 35 35 36 37 38 39 39 38 37 35 32 30 28 27 27 27 27 27 27 28 29 29 29 29 29 30 31 30 30 32 32 31 30 31 32 32 30 30 31 33 33 34 36
56 55 53 52 50 49 49 50 49 48 48 47 45 44 46 47 48 49 49 48 49 51 50 50 51 51 50 48 46 46 46 47 47 48 47 47 46 46 44 42 40 39 38 39 40 40 41 41 42 42 42 41 40 38 37 35 33 33 34 34 34 34 34 34 34 34 34 35 36 35 34 32 34 37 39 39 37 36 36 36 37 38 38 39 40
57 57 56 53 52 51 50 49 49 49 49 48 44 41 42 44 45 48 50 50 50 51 52 53 54 55 55 54 51 50 50 49 49 48 48 48 48 48 48 48 46 45 44 44 44 45 46 46 46 46 46 46 46 46 45 43 42 41 40 40 40 40 39 39 39 39 38 39 40 41 40 38 37 40 46 47 46 45 46 47 47 45 43 43 43
59 59 58 54 54 54 51 47 47 50 51 50 48 46 44 45 48 50 52 52 51 51 52 56 57 57 57 56 53 52 52 52 51 50 50 50 50 49 48 48 48 48 48 48 48 49 50 51 51 51 51 51 51 51 50 49 48 48 47 46 45 45 45 44 45 45 44 45 46 47 48 48 45 44 47 50 51 50 51 54 56 54 50 49 48
62 62 61 58 57 58 56 51 49 51 54 53 52 51 49 50 54 56 57 56 55 54 56 59 61 60 58 56 54 54 55 56 56 55 55 54 54 52 51 49 48 49 50 52 53 53 53 54 54 54 54 55 55 55 54 53 52 52 52 51 49 49 49 49 50 51 51 52 53 53 54 55 53 50 50 51 52 53 54 57 59 59 57 56 55
65 65 64 63 62 62 61 58 56 56 59 58 56 55 55 54 56 60 63 62 60 60 61 63 65 66 64 63 61 60 60 61 61 60 60 60 60 59 57 55 54 54 54 54 54 55 56 57 58 58 59 59 58 58 57 57 56 56 56 56 55 55 55 54 54 55 56 57 58 59 60 60 59 57 56 56 56 57 59 61 62 63 63 63 62
66 66 66 66 65 64 63 63 62 62 64 63 60 59 60 61 64 67 68 67 65 66 67 69 70 71 71 70 69 66 66 66 66 65 64 64 65 65 65 65 64 64 61 58 56 57 58 59 61 62 63 64 64 64 63 63 62 62 61 62 62 62 62 62 61 61 61 61 63 64 65 65 65 64 64 63 63 63 64 65 67 67 68 68 69
63 64 65 66 67 67 66 66 66 66 67 68 65 62 62 64 67 70 71 70 70 70 72 73 74 75 75 75 73 71 70 71 72 70 69 68 69 69 70 71 72 71 68 66 65 64 63 62 63 65 66 67 68 69 70 71 70 69 68 67 67 66 67 68 68 67 67 67 67 69 69 68 68 69 69 68 67 67 68 69 70 72 73 74 74
63 64 64 63 64 66 67 69 70 70 70 71 70 67 65 66 67 68 70 71 72 74 75 77 77 78 79 79 78 76 76 77 77 76 75 74 74 74 75 76 76 75 74 74 74 73 71 70 69 70 70 71 71 72 73 74 75 75 74 73 72 72 72 73 73 74 74 74 73 73 73 72 71 71 70 70 70 71 72 72 73 74 76 77 79
65 66 67 65 62 63 64 66 70 72 74 75 74 73 72 71 71 71 71 72 73 75 77 79 81 81 82 83 83 81 80 79 79 79 79 79 79 78 79 79 80 80 81 80 80 79 78 77 77 76 76 76 76 76 76 76 76 76 76 76 76 76 76 77 77 77 76 76 76 76 76 77 77 76 74 73 73 74 75 76 76 76 77 79 81
68 68 69 70 68 66 65 64 65 68 71 74 77 78 77 77 77 77 77 77 77 77 77 78 80 82 84 86 86 84 81 80 79 79 80 81 82 83 84 84 85 85 86 86 85 85 84 84 83 82 82 82 81 81 81 80 80 79 79 79 79 79 79 79 79 79 78 78 78 78 80 81 82 81 80 78 78 78 79 79 80 80 81 82 83
75 72 71 72 72 72 72 71 69 69 70 71 73 76 78 78 80 81 82 83 83 83 82 81 82 83 84 85 86 84 83 82 82 83 84 85 86 87 88 89 90 91 91 91 91 90 89 88 88 87 87 87 87 87 86 86 85 85 84 84 84 84 84 84 84 85 86 87 86 85 84 85 85 86 85 85 85 85 85 85 85 85 86 87 88
83 80 78 76 76 76 77 77 77 77 77 77 76 76 76 77 79 81 83 84 86 86 86 86 85 85 86 86 87 87 88 88 89 90 91 91 91 91 92 92 93 94 95 95 95 95 94 93 93 92 92 92 92 92 91 91 91 91 90 90 89 89 89 89 90 91 92 93 93 92 92 92 92 92 92 92 93 93 93 92 92 91 92 92 93
90 88 86 84 83 83 83 82 82 82 83 84 84 83 83 82 82 82 82 83 85 86 88 89 89 90 90 91 92 92 94 95 95 95 96 96 96 97 97 97 97 97 97 98 98 98 98 97 97 96 96 96 95 95 95 95 94 94 94 95 94 94 94 94 95 95 96 97 98 98 99 99 99 99 99 99 99 99 99 98 98 97 97 97 98
95 95 94 91 90 89 89 89 89 88 88 88 89 89 90 90 90 90 89 88 88 88 89 89 90 91 92 94 95 96 97 98 98 99 99 99 100 100 100 100 100 100 100 100 100 99 99 99 98 97 97 97 96 96 96 96 96 97 97 97 98 98 98 98 99 100 101 102 103 104 105 105 104 104 104 104 103 103 102 102 101 101 100 100 100
94 97 98 98 97 96 94 93 94 94 93 93 93 93 93 94 94 94 95 95 96 96 97 97 97 97 97 98 99 100 101 102 102 103 103 103 102 102 102 102 103 103 103 103 103 102 102 101 100 100 100 99 99 99 99 99 99 100 100 101 101 102 103 104 105 106 107 107 108 109 109 109 109 108 108 107 107 106 106 106 105 105 104 104 104
93 95 97 100 101 102 100 98 97 97 97 97 97 97 97 98 98 98 97 97 98 98 99 100 101 103 103 104 105 105 105 105 105 105 105 105 105 105 105 105 105 105 105 105 105 105 105 105 104 104 103 103 102 102 101 101 101 101 101 102 103 104 105 106 108 109 110 111 111 112 112 113 113 112 112 111 111 110 110 110 110 110 110 110 110
94 94 94 96 98 101 102 102 102 102 102 102 102 102 102 102 102 103 103 103 103 103 102 101 101 102 102 103 104 104 105 105 105 105 106 106 106 107 107 107 107 107 107 107 107 107 107 107 107 107 107 107 106 106 106 106 106 107 108 108 109 109 110 110 110 110 111 111 111 111 111 111 111 111 111 111 111 111 112 112 113 113 114 114 115
98 97 97 96 97 98 100 101 103 103 104 105 106 106 107 108 109 109 109 109 109 110 110 110 110 110 109 108 107 107 106 106 106 106 106 107 107 108 108 109 109 110 110 110 110 111 111 111 112 112 112 113 113 113 114 115 115 116 116 116 116 116 115 115 114 113 112 111 111 111 110 110 111 111 111 111 111 112 113 113 114 114 115 116 116
99 100 101 101 100 100 101 102 103 104 104 105 105 106 107 109 111 113 115 116 117 117 117 117 117 118 118 118 118 118 117 117 117 116 115 115 114 113 113 113 113 113 113 114 115 116 116 117 118 119 119 120 121 121 122 122 122 122 122 122 121 121 120 119 119 117 116 116 116 116 116 116 116 117 117 118 118 118 119 119 120 120 121 121 121
99 101 102 103 103 104 104 104 105 106 107 108 109 110 110 110 110 111 113 115 118 121 122 123 123 123 123 123 124 124 125 125 126 126 126 126 125 125 125 124 123 123 122 122 122 123 123 123 124 124 125 125 126 126 126 127 127 127 127 127 126 126 126 125 125 124 124 124 124 124 124 125 125 126 127 128 129 129 130 130 130 130 130 131 131
99 100 101 103 104 105 106 107 108 109 110 111 113 114 115 116 117 117 117 116 117 118 120 123 125 126 127 128 128 129 129 130 131 131 132 132 132 133 133 133 133 133 132 132 132 132 132 132 132 132 132 132 132 132 132 132 132 131 131 131 131 131 131 131 130 131 131 131 132 132 133 133 134 135 136 137 138 139 140 140 141 141 141 141 141
107 106 105 105 105 106 107 108 109 110 112 113 115 116 118 119 121 123 124 124 125 125 125 126 127 129 130 131 132 133 134 135 135 136 137 137 136 136 136 136 137 136 136 136 137 137 137 137 137 137 137 137 137 137 137 138 138 138 137 137 137 138 138 138 138 139 139 140 140 141 141 142 142 143 144 144 145 146 146 147 147 147 148 148 148
117 116 115 114 113 113 112 112 112 113 114 115 116 118 119 121 122 124 126 127 129 130 131 132 133 134 135 135 136 137 138 139 139 140 141 141 141 141 141 141 142 142 142 142 142 142 142 142 142 142 142 143 143 143 143 143 143 143 143 143 143 143 144 144 145 145 146 147 147 148 148 148 149 149 150 150 151 151 152 152 152 153 153 153 153
126 125 124 123 123 123 122 122 121 121 121 121 121 122 122 123 125 126 127 129 130 132 133 135 136 137 137 138 139 139 140 141 141 142 143 144 144 145 145 145 146 146 146 146 146 146 147 147 147 147 148 148 149 149 150 150 150 150 150 150 150 150 150 150 151 151 152 152 153 153 153 154 154 154 154 154 155 155 156 156 156 156 156 156 156
132 132 132 131 131 130 130 130 130 130 130 131 131 131 131 131 132 132 133 134 135 136 137 139 140 141 142 142 143 143 143 143 144 144 146 147 148 149 149 150 150 149 149 149 149 148 148 148 149 149 150 150 150 151 151 151 151 151 151 151 152 152 153 153 153 153 153 153 153 153 154 154 154 154 154 155 154 155 154 154 154 154 155 154 154
130 132 133 135 136 136 136 137 137 137 137 138 139 140 140 140 141 141 142 142 143 144 144 145 145 146 146 147 148 148 150 151 152 153 154 154 154 154 154 154 154 154 153 152 152 151 151 150 150 151 151 152 151 151 151 151 150 150 150 151 151 152 152 153 153 154 153 153 153 153 153 153 153 153 153 153 153 153 153 153 153 153 154 154 154
125 127 129 131 133 135 137 138 140 141 142 143 144 145 146 146 147 148 148 149 150 151 152 152 153 153 154 154 155 156 157 158 159 159 158 157 156 155 155 155 155 155 155 154 154 154 153 153 152 153 154 154 154 154 154 154 154 153 153 154 154 155 156 156 156 156 156 156 156 155 155 155 154 154 154 154 154 154 154 154 154 155 155 155 155
119 121 123 125 128 130 132 135 137 139 141 142 144 145 147 148 149 150 151 152 153 153 154 155 156 157 157 158 158 159 159 160 159 159 159 158 158 157 157 157 157 157 157 157 157 157 157 156 157 157 157 157 158 158 158 158 158 158 158 159 160 160 160 160 160 160 160 159 159 158 157 157 157 156 156 156 156 156 156 156 156 156 156 156 156
113 115 116 118 120 122 125 127 130 132 134 137 139 141 143 145 147 148 149 151 152 153 154 155 156 157 158 158 159 159 160 160 160 160 160 160 160 160 160 160 161 161 161 160 160 160 160 160 160 161 161 160 160 160 160 160 161 161 161 161 162 162 161 160 160 159 159 158 158 157 156 156 155 155 155 155 154 154 154 154 153 153 153 152 152
112 114 116 117 119 121 122 124 126 128 130 132 134 136 138 140 142 144 146 147 149 151 152 153 155 156 157 159 160 160 161 162 162 162 162 162 162 162 162 161 161 161 160 159 158 158 158 157 157 156 154 153 152 151 151 151 151 152 152 153 153 153 152 151 150 149 148 147 147 146 146 145 145 145 144 144 144 144 143 143 143 143 142 142 141
109 110 112 114 116 118 120 122 124 126 128 129 131 133 135 136 138 140 142 143 145 147 148 150 151 152 153 154 155 156 156 156 156 155 154 153 152 150 149 148 146 145 143 143 142 142 141 141 140 139 138 137 136 136 135 134 134 134 135 135 136 136 137 136 135 134 133 132 132 132 132 132 132 131 131 131 131 131 131 131 131 131 131 131 131
100 101 103 105 108 110 112 114 116 118 119 121 123 124 126 128 129 131 133 135 136 138 139 139 140 141 141 142 142 142 141 140 139 137 136 134 133 131 130 128 127 126 125 125 125 125 125 125 125 125 125 125 124 123 122 121 120 120 120 120 120 121 123 123 123 122 121 121 121 121 121 122 122 121 121 121 121 122 122 122 122 123 123 123 123
Wind_Direction
181 174 169 162 155 147 139 130 120 113 106 99 94 90 87 84 83 85 87 89 92 97 104 114 128 141 147 150 153 155 155 155 152 151 149 147 145 142 142 142 142 143 142 141 139 135 131 124 118 114 111 106 100 90 80 71 62 53 47 43 42 42 41 41 42 43 42 41 39 38 39 38 39 40 42 52 67 74 79 82 82 82 81 79 78
180 174 171 166 161 156 151 146 138 131 123 115 106 97 90 85 81 81 83 85 87 91 95 102 111 127 143 151 156 162 164 166 165 161 158 155 153 151 149 149 149 148 147 146 145 141 138 135 130 126 125 121 116 107 96 80 63 48 40 35 32 31 30 29 30 31 32 32 31 31 34 36 37 38 39 50 73 87 89 89 87 85 83 81 79
180 177 175 171 166 162 159 158 155 150 144 135 129 119 107 98 89 82 80 80 82 86 92 96 100 109 127 142 153 162 169 174 176 175 174 172 168 166 163 162 161 159 157 156 155 153 151 149 147 144 141 142 138 130 118 94 65 39 29 24 22 19 19 19 18 19 23 26 26 26 28 31 35 38 39 47 75 95 96 93 90 86 80 77 75
185 182 182 179 175 173 171 169 169 167 166 161 155 150 140 131 119 105 94 82 78 81 87 94 100 102 111 125 142 156 167 175 181 184 186 188 187 184 183 183 183 179 177 176 175 175 174 175 174 175 173 171 166 160 156 80 14 7 8 9 9 7 6 6 7 9 14 18 18 18 18 22 27 33 36 46 73 104 107 99 92 84 77 72 68
195 194 195 194 192 192 190 187 187 185 184 184 185 184 178 169 162 158 153 144 117 92 83 91 111 119 121 121 128 144 160 171 180 187 192 195 198 200 201 201 201 200 199 200 201 202 204 208 210 214 218 218 221 237 265 289 310 326 337 342 347 351 352 354 357 1 6 9 9 9 10 13 18 24 30 38 60 105 114 102 91 82 74 66 61
205 206 208 209 207 206 205 203 203 204 202 201 202 207 209 205 198 190 188 194 203 213 225 235 233 225 193 170 159 154 161 168 176 182 187 193 198 204 208 209 210 211 212 212 215 219 221 224 229 236 242 246 250 257 269 285 300 312 324 332 338 344 349 353 356 359 4 7 6 6 9 7 7 11 19 33 52 117 129 103 86 77 66 55 50
213 215 216 216 215 213 213 212 212 212 213 214 215 218 224 227 224 217 211 210 213 217 223 230 236 242 240 226 209 197 191 195 202 201 193 196 206 211 211 212 211 210 212 212 214 217 220 223 228 234 238 242 245 249 261 291 329 347 357 5 10 13 15 17 14 10 8 3 355 355 1 360 356 352 352 1 28 197 205 167 87 62 46 38 34
218 220 221 221 220 220 220 219 219 220 222 224 226 230 235 240 243 242 237 232 226 223 223 228 234 238 241 240 237 231 222 217 219 221 217 216 221 223 222 218 217 215 213 211 207 206 207 209 218 227 234 238 245 258 268 279 26 35 31 32 34 32 30 30 26 17 9 351 331 330 341 347 351 345 335 332 329 288 233 240 256 284 316 336 358
223 223 224 225 224 225 227 228 228 229 231 232 234 236 240 244 247 249 249 248 246 244 240 238 238 238 238 238 239 240 238 233 231 232 232 231 231 232 230 229 230 232 229 225 222 224 227 230 236 243 248 250 254 261 269 279 293 316 337 354 9 8 356 8 18 8 2 341 321 325 336 340 351 349 328 317 311 298 269 250 257 275 288 291 301
227 228 228 228 228 229 231 232 233 234 236 237 237 238 240 242 244 244 244 247 254 260 262 259 253 247 242 240 239 240 239 236 235 236 238 240 241 240 240 239 240 241 242 240 238 240 242 245 250 255 258 261 263 265 270 272 269 271 276 283 303 319 320 333 350 343 340 332 321 324 329 324 336 337 314 302 299 292 281 267 262 272 284 285 285
228 230 231 230 230 231 232 233 236 238 240 240 240 240 241 244 246 245 243 246 256 264 266 264 260 257 253 249 245 242 240 238 237 237 239 243 246 247 246 246 246 246 245 245 246 246 247 249 254 259 263 266 267 267 267 264 262 265 271 278 292 307 314 324 329 323 320 323 322 321 321 316 315 311 301 297 293 288 282 277 269 266 273 278 279
230 231 232 233 232 233 234 236 238 240 241 241 241 241 244 247 250 250 247 249 259 265 264 259 253 250 251 252 249 244 242 242 241 241 241 243 246 249 250 250 250 250 250 250 250 250 251 253 256 260 262 263 265 266 266 266 268 270 273 281 290 296 301 305 308 307 309 317 318 312 312 311 303 295 292 290 288 286 283 281 278 273 272 273 275
231 232 232 234 235 236 238 239 240 242 244 246 245 244 246 249 252 255 253 251 256 262 265 263 259 255 254 254 252 249 246 244 245 245 245 245 245 247 250 250 250 250 251 253 254 253 254 255 255 257 259 261 263 265 265 269 273 275 275 278 282 286 292 296 298 301 303 308 310 306 304 302 291 284 283 281 283 286 283 280 279 278 277 277 279
231 233 234 235 236 237 239 239 241 243 246 249 249 248 249 251 253 256 257 256 256 258 261 263 262 261 260 258 256 254 252 250 248 248 248 248 246 244 246 248 249 248 249 251 252 252 251 250 249 252 256 260 263 265 267 268 270 271 271 269 267 269 277 282 286 289 289 290 293 295 299 298 291 286 287 287 286 286 283 280 278 277 276 278 280
231 233 235 236 237 239 240 241 242 243 244 247 249 249 250 253 255 256 256 257 256 254 255 256 256 256 257 258 257 255 253 253 254 253 251 249 247 244 244 245 246 247 247 248 250 250 249 247 246 248 254 260 263 266 268 268 266 266 268 268 264 262 266 270 273 278 281 282 283 284 288 291 289 287 289 289 287 283 281 281 281 278 276 276 277
232 233 234 236 238 239 241 243 244 245 245 246 247 249 250 252 255 256 256 255 255 253 252 252 253 253 254 254 255 253 252 252 254 255 255 252 249 247 245 245 246 247 248 249 249 249 248 246 245 246 249 253 256 261 266 268 267 267 267 268 268 266 269 271 271 274 276 277 277 278 278 281 282 284 285 285 285 283 281 281 281 282 282 281 280
233 235 236 237 238 240 242 244 245 245 246 247 248 249 251 254 256 256 255 252 252 252 252 251 251 252 253 253 253 253 253 253 254 255 255 254 252 250 248 247 248 249 251 252 252 251 249 248 247 247 246 247 248 251 257 262 266 269 270 271 273 275 277 280 280 281 280 278 276 274 274 275 277 280 283 284 284 284 285 285 285 285 284 285 285
233 235 236 238 239 240 242 244 245 245 247 249 249 248 251 255 257 255 254 252 251 251 252 252 252 252 253 254 254 254 254 254 254 255 255 255 254 253 251 251 251 252 252 253 253 252 251 251 250 250 248 247 245 246 249 253 258 263 265 267 270 274 279 281 283 283 282 280 277 274 274 275 276 277 280 283 284 284 285 288 291 289 285 285 286
234 234 236 238 239 239 241 243 245 245 245 247 250 251 252 255 256 254 252 252 253 252 253 253 253 254 254 255 255 256 255 255 255 255 254 254 255 255 255 254 254 254 255 255 255 254 253 253 252 252 252 251 249 249 251 253 255 258 260 262 264 269 273 275 276 279 280 279 277 276 276 278 279 280 279 279 280 280 280 282 288 289 287 286 287
236 235 235 236 237 239 241 242 244 244 243 245 249 251 251 252 253 252 250 249 252 254 255 255 254 254 255 254 254 255 256 256 256 255 255 255 255 255 255 255 255 256 257 257 258 258 257 256 254 253 253 254 255 256 257 257 256 257 260 262 264 267 268 269 270 274 276 277 278 277 276 275 277 279 280 279 279 279 279 281 285 287 287 286 287
236 235 234 233 234 237 240 241 242 243 243 242 243 244 245 246 248 249 250 250 251 253 255 255 254 253 253 252 252 254 256 257 257 257 256 256 255 254 252 252 253 256 258 259 259 260 260 261 260 259 258 258 258 260 261 260 258 258 260 263 265 268 269 268 268 270 272 273 275 276 276 274 274 275 277 280 282 283 284 284 284 284 285 285 286
236 235 234 233 232 234 236 238 241 244 244 243 241 242 244 247 249 250 253 253 250 248 250 253 254 254 253 251 251 253 256 258 259 259 258 256 255 253 251 251 254 256 258 259 259 260 261 261 263 264 264 263 263 263 264 263 261 260 261 264 267 269 270 270 269 269 271 271 273 274 274 274 273 273 274 277 279 280 281 281 280 281 282 283 283
235 234 234 232 232 232 233 235 238 243 245 244 241 241 244 248 249 250 253 253 250 246 246 250 253 255 254 253 252 254 257 258 259 259 259 258 256 254 252 254 258 262 262 261 260 260 261 261 262 263 265 266 266 266 266 266 265 264 264 265 267 268 269 269 269 270 271 272 272 272 272 272 273 273 273 274 274 275 274 274 276 279 280 280 280
236 235 234 233 233 233 233 233 235 239 243 244 241 239 241 244 246 248 252 253 252 249 248 249 252 254 255 254 254 256 258 259 259 259 259 259 258 256 255 257 261 265 266 264 262 261 261 262 262 263 264 265 266 266 266 266 267 267 266 267 269 269 269 268 269 269 270 271 272 272 272 272 273 273 274 273 273 272 272 272 275 278 279 280 279
236 235 235 235 235 234 234 234 235 237 240 244 244 242 241 242 243 247 250 251 250 250 250 250 251 254 256 255 255 257 259 260 259 259 259 260 259 259 258 259 262 265 266 266 266 265 264 263 263 264 264 265 265 266 266 267 267 268 268 269 270 270 269 269 270 271 271 271 271 272 272 273 273 273 273 273 272 272 272 272 274 276 278 279 280
233 233 234 236 237 236 235 235 236 238 240 242 243 244 245 245 245 247 249 250 250 250 251 252 253 255 257 258 258 259 260 260 259 259 260 260 261 261 261 261 263 266 266 266 267 269 269 268 267 266 266 265 265 266 266 267 267 268 268 269 270 270 270 270 271 272 273 273 273 273 274 274 275 275 274 274 274 274 274 273 273 274 275 276 278
230 229 231 234 237 239 239 238 238 238 239 241 242 243 245 247 247 248 249 250 250 250 250 252 253 255 257 259 259 259 260 260 260 260 262 263 263 263 263 264 265 266 267 268 269 271 272 273 272 271 269 268 268 268 268 268 268 268 268 269 269 270 270 271 272 274 275 275 275 275 274 275 276 277 277 277 278 278 277 277 277 276 275 275 276
231 229 229 231 235 238 241 243 242 241 240 241 242 243 244 246 246 247 249 250 250 250 251 252 253 254 255 257 258 259 259 258 259 260 261 262 264 265 266 267 267 268 269 270 271 273 274 274 274 273 272 271 271 271 271 271 270 270 269 269 269 270 271 272 272 273 274 276 276 275 275 276 278 279 279 279 280 279 279 279 279 279 278 278 277
234 233 232 231 232 235 239 242 245 245 245 244 244 245 246 246 246 247 248 250 251 252 252 253 254 254 255 256 257 258 257 256 256 257 258 260 262 265 266 268 269 269 271 271 272 273 273 273 273 273 272 272 272 273 273 273 272 271 270 269 269 270 271 272 272 272 272 274 276 276 276 277 278 279 279 280 280 280 279 279 278 278 279 278 278
236 236 236 234 234 234 236 238 241 244 247 248 249 249 249 249 248 248 248 250 252 253 254 254 254 254 255 255 255 254 254 255 257 259 260 261 262 263 264 266 267 268 268 269 270 271 271 271 272 272 271 271 272 273 274 274 273 272 271 270 269 269 270 270 270 271 271 274 276 277 278 279 279 279 279 279 279 279 279 279 278 277 277 277 277
237 237 237 238 237 236 236 237 239 242 245 247 249 250 251 252 252 252 251 252 253 254 255 255 255 255 255 255 254 254 255 257 259 261 263 264 264 264 265 265 266 267 268 268 269 270 270 271 271 271 271 271 271 272 272 273 273 272 272 272 272 271 271 271 272 273 274 276 278 279 280 281 281 280 279 278 279 279 279 279 278 277 277 276 276
238 238 239 240 240 240 240 239 240 241 242 245 247 248 250 251 252 253 254 254 254 255 256 256 256 256 256 256 256 256 257 259 261 262 264 265 265 266 267 267 268 268 269 270 270 271 271 271 271 271 271 271 271 271 271 271 272 272 272 272 272 272 272 273 274 275 276 277 278 279 280 280 280 280 279 279 279 279 279 279 279 278 277 277 277
241 241 241 241 242 242 242 243 243 242 242 243 244 246 248 250 251 252 253 253 254 255 255 256 256 257 257 257 258 258 260 261 262 263 264 265 266 267 267 268 269 269 270 270 271 271 271 272 271 271 271 271 271 271 271 271 271 271 271 271 271 271 271 272 272 273 274 275 276 277 278 279 279 279 279 279 279 279 278 278 278 278 277 277 276
245 244 243 243 243 243 243 243 244 244 244 244 244 244 246 247 249 251 252 252 253 254 255 255 256 256 257 258 259 260 261 262 263 264 264 265 266 266 267 267 268 269 269 269 270 270 270 270 270 270 270 270 270 270 270 270 270 270 270 270 270 270 271 271 272 273 274 275 275 276 277 277 278 278 278 277 277 277 277 277 276 276 276 275 275
245 246 246 246 246 245 245 245 245 245 245 246 246 246 246 247 247 249 250 250 251 252 253 254 255 256 257 258 259 260 261 261 262 263 263 264 264 265 265 265 266 266 267 268 268 269 269 269 269 269 269 269 269 269 269 269 269 269 269 269 270 270 271 271 272 273 274 274 275 275 276 276 277 277 276 276 276 276 276 276 276 276 276 275 275
244 244 246 247 247 248 248 248 248 248 248 248 248 249 249 249 249 249 249 250 250 250 251 251 252 253 254 255 256 257 258 259 260 260 261 261 262 262 263 263 263 264 264 265 265 266 267 267 267 268 268 268 268 268 268 268 268 269 269 270 270 271 271 271 272 272 272 273 273 274 274 274 275 275 275 275 275 275 275 275 275 275 276 276 276
244 244 245 245 246 247 248 249 249 250 250 250 251 251 251 251 251 251 251 251 251 252 252 252 252 253 253 253 254 254 255 256 256 257 258 258 259 260 260 261 261 262 262 263 263 264 265 265 266 266 267 267 268 268 268 269 269 269 269 270 270 270 270 270 270 270 271 271 271 272 272 272 272 273 273 273 273 274 274 274 274 274 274 274 275
245 245 246 246 246 247 247 248 249 249 249 250 250 251 252 252 253 253 253 253 254 254 254 254 254 255 255 256 256 256 256 257 257 257 258 258 258 259 259 260 260 261 261 262 263 263 264 265 265 266 267 267 268 269 269 269 269 269 269 269 269 269 269 269 269 269 269 270 270 270 271 271 271 272 272 273 273 274 274 275 275 275 275 275 275
242 244 245 247 248 248 248 248 249 249 249 249 250 250 251 251 252 252 253 254 254 255 256 256 256 256 257 257 258 258 259 259 259 259 260 260 260 261 261 261 261 261 262 262 263 263 264 264 265 266 266 267 267 268 268 268 268 268 268 268 268 268 268 268 268 268 268 269 269 270 270 271 271 272 273 274 274 275 276 276 277 277 277 277 277
241 242 244 245 247 248 249 250 250 250 250 250 251 251 252 252 252 252 252 252 253 254 255 255 256 257 257 258 258 259 260 260 261 261 261 261 262 262 262 262 263 263 263 264 264 264 265 265 266 266 267 267 267 267 267 268 268 268 268 268 268 268 268 268 269 269 269 269 270 270 271 272 272 273 274 275 275 276 277 278 278 279 279 279 279
243 243 244 245 246 247 248 249 250 251 252 252 252 253 253 254 254 254 254 254 254 254 254 255 255 256 256 257 258 258 259 260 260 261 262 262 262 262 262 263 263 263 263 264 264 265 265 265 266 266 267 267 267 267 267 268 268 268 268 268 268 269 269 269 270 270 270 271 271 272 272 272 273 273 274 274 275 276 276 277 277 278 278 278 279
245 246 246 247 247 248 248 249 249 250 251 252 253 253 254 255 255 256 256 256 257 257 257 257 258 258 258 258 259 259 260 261 261 262 262 263 263 263 263 263 264 264 264 264 264 265 265 265 266 266 266 267 267 267 267 267 268 268 268 269 269 269 269 270 270 271 271 272 272 272 272 273 273 273 273 274 274 275 275 275 276 276 276 277 277
249 250 250 250 250 250 250 251 251 251 252 252 253 253 254 255 255 256 257 257 258 259 259 260 260 260 261 261 261 262 262 263 263 264 264 265 265 266 266 266 266 266 266 266 266 266 266 267 267 267 267 267 268 268 268 268 268 269 269 269 269 270 270 270 271 271 272 272 273 273 273 273 273 274 274 274 275 275 275 275 276 276 276 276 276
251 252 253 253 254 254 254 254 254 253 254 254 254 255 255 256 256 257 257 258 259 259 260 261 261 262 262 263 263 264 264 264 265 266 266 267 267 268 268 269 269 269 269 269 269 269 269 269 270 270 270 270 270 270 270 270 270 270 270 270 270 270 271 271 271 272 272 273 273 273 273 273 273 274 274 274 275 275 275 276 276 276 276 276 277
252 252 253 254 255 255 256 256 257 257 256 257 257 257 257 257 258 258 258 259 259 260 260 261 261 261 262 262 263 264 264 265 266 267 267 268 268 268 268 269 269 269 270 270 270 270 270 271 271 271 271 272 272 272 272 272 272 272 272 272 272 272 272 273 273 273 274 274 274 274 274 274 274 274 275 275 275 275 276 276 276 276 276 277 277
253 254 254 255 255 256 256 257 258 258 258 259 259 259 259 259 259 260 260 260 260 261 261 262 262 262 263 263 263 264 265 266 267 268 268 269 269 269 269 270 270 270 270 271 271 271 271 272 272 272 272 272 273 273 273 273 273 273 273 274 274 274 274 274 274 274 274 275 275 275 275 275 275 275 275 276 276 276 276 276 276 276 276 277 277
255 256 256 257 257 258 258 258 259 259 259 260 260 261 261 261 261 262 262 262 262 263 263 263 264 264 265 265 266 266 267 268 269 269 270 270 271 271 271 271 272 272 272 272 272 273 273 273 273 273 273 273 273 273 273 273 273 274 274 274 274 274 274 274 274 274 274 275 275 275 275 275 275 275 276 276 276 276 276 276 276 276 276 276 277
258 259 259 260 260 260 261 261 261 262 262 262 262 263 263 263 263 264 264 264 265 265 265 266 266 267 267 267 268 269 269 270 270 271 271 272 272 272 273 273 273 273 274 274 274 274 274 274 274 274 274 274 274 273 273 273 273 273 273 273 273 273 274 274 274 274 274 274 274 275 275 275 275 275 275 275 275 275 275 275 276 276 276 276 276
263 263 263 263 264 264 264 264 264 265 265 265 265 265 266 266 266 266 267 267 267 268 268 268 269 269 270 270 270 271 272 272 272 273 273 274 274 274 274 274 274 274 275 275 275 275 275 275 275 274 274 274 274 274 273 273 273 273 273 273 273 273 274 274 274 274 274 274 274 274 274 274 274 274 274 274 274 274 274 274 275 275 275 275 275
266 266 266 266 267 267 267 267 267 267 267 267 268 268 268 268 268 269 269 269 269 270 270 270 271 271 272 272 272 273 273 274 274 275 275 275 275 275 276 276 276 276 276 276 275 275 275 275 275 275 275 274 274 273 273 273 272 272 272 272 273 273 273 274 274 274 274 274 274 273 273 273 273 273 273 273 273 273 273 273 273 274 274 274 274
268 268 268 268 268 268 269 269 269 269 269 269 269 269 269 270 270 270 270 270 271 271 271 272 272 272 273 273 274 274 275 275 276 276 276 277 277 277 277 277 277 277 277 276 276 276 276 276 275 275 275 274 274 273 273 273 273 273 273 273 273 273 273 273 273 273 273 273 273 273 272 272 272 272 272 272 272 272 272 272 273 273 273 273 273
Height
11010 11011 11011 11012 11012 11013 11013 11014 11014 11015 11015 11015 11015 11015 11015 11016 11016 11016 11016 11016 11016 11016 11016 11016 11017 11017 11017 11017 11018 11018 11018 11018 11019 11019 11019 11019 11019 11020 11020 11020 11020 11020 11020 11020 11020 11020 11020 11020 11020 11019 11019 11019 11019 11018 11018 11018 11018 11017 11017 11017 11016 11016 11016 11015 11015 11015 11014 11014 11014 11013 11013 11012 11012 11010 11009 11008 11007 11005 11004 11003 11002 11000 10999 10998 10997
11010 11011 11011 11012 11012 11013 11014 11014 11015 11015 11015 11016 11016 11016 11016 11016 11017 11017 11018 11018 11018 11018 11018 11018 11018 11018 11018 11018 11018 11019 11019 11019 11019 11020 11020 11020 11020 11020 11020 11020 11020 11021 11021 11021 11021 11021 11021 11021 11021 11020 11020 11020 11020 11020 11019 11019 11019 11018 11018 11018 11018 11017 11017 11017 11017 11016 11016 11016 11015 11015 11014 11014 11013 11013 11012 11010 11009 11008 11006 11005 11004 11003 11002 11001 11000
11009 11010 11011 11012 11012 11013 11014 11014 11015 11015 11016 11016 11017 11017 11017 11017 11018 11018 11018 11019 11019 11019 11019 11019 11019 11019 11019 11019 11019 11019 11019 11020 11020 11020 11020 11021 11021 11021 11021 11021 11021 11021 11021 11021 11022 11021 11021 11021 11021 11021 11021 11021 11021 11020 11020 11020 11020 11019 11019 11019 11019 11019 11018 11018 11018 11018 11018 11017 11017 11016 11016 11015 11015 11014 11014 11013 11011 11010 11009 11008 11006 11005 11004 11003 11002
11009 11010 11011 11012 11013 11013 11014 11014 11015 11015 11016 11017 11017 11017 11018 11018 11018 11019 11019 11020 11020 11020 11020 11021 11021 11020 11020 11020 11020 11019 11020 11020 11020 11020 11021 11021 11021 11021 11021 11021 11021 11022 11022 11022 11022 11022 11022 11022 11022 11022 11022 11021 11021 11021 11021 11020 11020 11020 11020 11020 11020 11020 11019 11019 11019 11019 11019 11019 11018 11018 11017 11016 11016 11015 11015 11014 11013 11012 11011 11010 11009 11008 11007 11006 11005
11008 11010 11011 11012 11013 11013 11014 11014 11015 11015 11016 11016 11017 11017 11018 11018 11018 11019 11019 11020 11020 11021 11021 11021 11021 11021 11021 11021 11021 11020 11020 11020 11020 11020 11021 11021 11021 11022 11022 11022 11022 11022 11022 11022 11022 11022 11022 11022 11022 11022 11022 11021 11021 11021 11021 11021 11020 11020 11020 11020 11020 11020 11020 11020 11020 11020 11020 11020 11020 11019 11018 11017 11017 11016 11016 11015 11014 11013 11012 11011 11011 11010 11009 11008 11007
11007 11008 11009 11010 11012 11012 11013 11014 11014 11015 11015 11015 11016 11017 11017 11018 11018 11018 11019 11019 11020 11021 11021 11021 11021 11021 11022 11022 11022 11021 11021 11021 11021 11021 11021 11021 11021 11022 11022 11022 11022 11022 11022 11022 11022 11022 11022 11022 11022 11022 11021 11021 11021 11021 11021 11020 11020 11020 11020 11020 11020 11020 11020 11020 11020 11020 11020 11021 11021 11020 11020 11019 11019 11018 11017 11016 11016 11015 11014 11013 11012 11011 11010 11009 11008
11005 11006 11007 11008 11010 11011 11012 11012 11013 11014 11014 11015 11015 11016 11016 11017 11017 11018 11018 11019 11019 11020 11020 11021 11021 11021 11021 11021 11022 11022 11022 11022 11022 11022 11022 11022 11022 11022 11022 11022 11022 11022 11022 11022 11022 11022 11022 11022 11022 11021 11021 11021 11021 11021 11020 11020 11020 11020 11020 11020 11019 11019 11020 11020 11020 11020 11020 11021 11022 11021 11020 11020 11019 11019 11019 11018 11017 11016 11015 11014 11013 11012 11011 11010 11009
11002 11004 11005 11006 11007 11008 11009 11010 11011 11012 11013 11014 11014 11015 11015 11016 11017 11017 11017 11018 11018 11018 11019 11020 11020 11020 11020 11020 11021 11021 11021 11022 11022 11022 11022 11022 11022 11022 11021 11021 11021 11021 11021 11021 11021 11021 11021 11021 11021 11021 11021 11021 11021 11021 11020 11020 11020 11020 11020 11020 11019 11019 11019 11019 11020 11021 11021 11023 11023 11022 11020 11019 11019 11019 11020 11019 11018 11017 11015 11014 11013 11012 11011 11010 11009
11000 11001 11002 11004 11005 11006 11007 11008 11009 11010 11011 11012 11012 11013 11013 11014 11015 11016 11016 11016 11016 11017 11018 11018 11019 11019 11020 11020 11020 11020 11020 11020 11021 11021 11021 11021 11021 11021 11021 11021 11020 11020 11020 11020 11020 11020 11021 11020 11020 11020 11020 11020 11020 11020 11020 11020 11020 11020 11020 11019 11019 11018 11018 11018 11018 11018 11019 11021 11022 11021 11020 11020 11018 11018 11020 11021 11020 11018 11016 11014 11013 11012 11011 11010 11009
10997 10999 11000 11002 11003 11004 11004 11005 11006 11007 11007 11008 11009 11010 11010 11011 11012 11013 11014 11014 11015 11016 11016 11017 11017 11018 11018 11019 11019 11019 11018 11018 11019 11019 11019 11019 11019 11020 11020 11020 11020 11019 11019 11019 11019 11019 11019 11019 11019 11019 11019 11019 11019 11019 11019 11019 11019 11019 11018 11018 11018 11017 11017 11017 11017 11017 11017 11018 11019 11019 11019 11019 11018 11018 11020 11021 11020 11018 11017 11015 11013 11012 11010 11009 11008
10994 10995 10997 10999 11000 11000 11001 11002 11003 11004 11004 11004 11005 11005 11007 11008 11009 11010 11011 11012 11013 11014 11015 11015 11015 11016 11016 11017 11017 11017 11017 11017 11017 11017 11018 11018 11018 11018 11018 11018 11018 11018 11018 11018 11018 11017 11017 11018 11018 11017 11017 11017 11017 11017 11017 11017 11017 11017 11017 11017 11016 11016 11016 11017 11016 11016 11016 11016 11017 11017 11017 11017 11017 11017 11018 11019 11018 11017 11016 11015 11013 11012 11010 11009 11007
10989 10991 10993 10995 10996 10997 10998 10999 11000 11000 11000 11001 11002 11002 11003 11005 11006 11007 11009 11010 11010 11011 11012 11012 11012 11013 11013 11013 11013 11013 11014 11014 11015 11015 11016 11016 11016 11016 11016 11016 11016 11016 11016 11016 11016 11016 11016 11016 11016 11016 11015 11015 11015 11015 11014 11014 11014 11015 11015 11015 11015 11015 11015 11015 11015 11015 11015 11015 11014 11015 11015 11015 11014 11014 11015 11015 11015 11015 11014 11014 11013 11011 11010 11008 11007
10984 10986 10988 10990 10992 10994 10994 10995 10996 10996 10997 10999 11000 11000 11001 11002 11003 11005 11006 11007 11008 11009 11009 11009 11009 11009 11009 11010 11010 11010 11010 11011 11011 11012 11013 11013 11013 11013 11013 11014 11014 11014 11014 11014 11014 11014 11015 11015 11014 11014 11014 11013 11013 11012 11012 11012 11012 11012 11012 11012 11013 11013 11013 11013 11013 11013 11012 11012 11012 11013 11013 11013 11012 11012 11012 11012 11012 11011 11011 11011 11011 11010 11009 11008 11006
10979 10982 10984 10986 10988 10989 10990 10991 10992 10993 10994 10995 10997 10997 10998 10999 11000 11002 11003 11004 11005 11006 11007 11006 11006 11006 11006 11007 11007 11008 11008 11008 11008 11008 11009 11009 11010 11010 11010 11011 11011 11012 11012 11012 11012 11013 11013 11012 11012 11012 11012 11011 11011 11010 11010 11010 11010 11009 11009 11009 11010 11010 11010 11010 11010 11010 11009 11008 11008 11009 11010 11010 11010 11010 11009 11008 11009 11008 11007 11008 11008 11008 11007 11006 11004
10975 10977 10979 10981 10983 10984 10985 10986 10987 10988 10989 10991 10992 10993 10994 10995 10996 10998 10999 11000 11001 11002 11002 11002 11002 11002 11002 11003 11004 11004 11005 11005 11005 11004 11004 11005 11005 11006 11007 11007 11008 11009 11009 11010 11009 11010 11010 11010 11010 11009 11009 11009 11008 11008 11008 11008 11007 11007 11007 11006 11006 11007 11007 11007 11006 11006 11005 11004 11004 11004 11005 11006 11006 11006 11005 11004 11004 11004 11004 11004 11005 11004 11004 11003 11002
10970 10972 10973 10975 10977 10979 10980 10981 10982 10983 10984 10985 10987 10988 10989 10990 10992 10993 10994 10995 10996 10996 10997 10997 10997 10997 10998 10999 10999 11000 11000 11001 11001 11001 11001 11001 11002 11002 11003 11003 11004 11005 11005 11005 11005 11006 11006 11006 11006 11006 11006 11006 11006 11005 11005 11005 11004 11004 11004 11004 11004 11004 11004 11004 11003 11002 11001 11001 11000 10999 11000 11002 11002 11002 11001 11001 11000 11000 11000 11000 11001 11001 11000 10999 10998
10964 10967 10969 10970 10972 10974 10975 10975 10976 10977 10978 10979 10981 10982 10983 10985 10987 10988 10989 10990 10991 10991 10991 10991 10992 10992 10993 10994 10994 10994 10995 10996 10996 10996 10997 10997 10998 10998 10998 10999 11000 11000 11001 11001 11001 11002 11002 11002 11002 11002 11002 11002 11002 11002 11002 11002 11002 11001 11001 11001 11001 11001 11001 11000 10999 10999 10998 10997 10997 10996 10996 10997 10997 10997 10997 10997 10997 10997 10996 10997 10997 10997 10996 10995 10994
10959 10962 10964 10965 10967 10970 10970 10969 10970 10970 10972 10973 10975 10976 10978 10980 10981 10982 10983 10984 10985 10986 10985 10985 10986 10987 10987 10988 10988 10989 10990 10990 10991 10991 10992 10993 10993 10994 10994 10994 10995 10995 10996 10996 10996 10997 10997 10997 10997 10998 10998 10998 10998 10998 10998 10998 10998 10998 10998 10997 10997 10997 10997 10997 10995 10995 10994 10993 10993 10993 10992 10992 10993 10993 10993 10993 10993 10993 10993 10993 10993 10993 10992 10991 10990
10954 10957 10959 10960 10962 10964 10965 10964 10964 10965 10967 10968 10969 10970 10972 10974 10975 10976 10977 10978 10978 10979 10980 10981 10981 10981 10981 10982 10982 10983 10983 10985 10985 10986 10987 10988 10988 10989 10989 10989 10990 10990 10991 10991 10992 10992 10992 10992 10992 10993 10993 10993 10993 10994 10994 10994 10994 10994 10993 10993 10993 10993 10993 10993 10991 10991 10991 10990 10989 10989 10988 10988 10987 10987 10988 10988 10988 10989 10989 10989 10988 10988 10987 10987 10985
10951 10953 10954 10955 10957 10958 10958 10959 10959 10960 10961 10963 10965 10965 10965 10967 10968 10969 10970 10971 10972 10973 10975 10975 10975 10975 10975 10975 10975 10976 10977 10978 10979 10980 10981 10982 10983 10984 10984 10984 10984 10985 10986 10986 10987 10987 10988 10988 10987 10988 10988 10988 10988 10989 10989 10989 10989 10988 10988 10988 10988 10988 10988 10988 10986 10986 10986 10986 10985 10985 10985 10984 10982 10981 10981 10981 10982 10982 10983 10983 10982 10982 10982 10981 10980
10945 10947 10947 10949 10951 10951 10951 10952 10953 10954 10955 10958 10960 10959 10959 10960 10962 10962 10963 10964 10965 10967 10968 10967 10967 10967 10967 10968 10969 10970 10970 10971 10972 10974 10975 10976 10977 10977 10978 10978 10978 10979 10980 10981 10981 10982 10982 10982 10982 10983 10983 10983 10983 10983 10983 10984 10983 10982 10981 10982 10982 10982 10982 10981 10980 10979 10980 10980 10980 10979 10979 10979 10978 10976 10974 10974 10975 10975 10975 10975 10974 10975 10975 10974 10973
10938 10939 10941 10943 10943 10943 10944 10946 10947 10948 10949 10951 10953 10953 10954 10955 10956 10956 10956 10957 10958 10959 10959 10958 10959 10959 10959 10961 10963 10964 10964 10965 10966 10967 10968 10969 10970 10970 10970 10971 10972 10973 10973 10974 10975 10975 10975 10976 10976 10976 10977 10977 10976 10976 10977 10977 10976 10976 10975 10975 10975 10975 10975 10975 10973 10972 10973 10973 10973 10972 10972 10971 10972 10972 10970 10968 10968 10968 10968 10967 10966 10966 10967 10967 10966
10930 10931 10933 10935 10935 10935 10938 10941 10942 10942 10942 10943 10945 10947 10948 10950 10949 10949 10949 10949 10950 10951 10951 10951 10951 10951 10952 10955 10956 10957 10957 10958 10960 10961 10961 10962 10963 10963 10964 10964 10965 10966 10966 10967 10967 10967 10968 10968 10969 10969 10969 10969 10969 10969 10969 10969 10969 10968 10968 10967 10967 10967 10967 10967 10966 10966 10966 10966 10965 10965 10964 10963 10964 10965 10964 10963 10962 10962 10961 10959 10958 10958 10959 10959 10959
10921 10923 10925 10927 10927 10929 10932 10934 10935 10936 10936 10936 10938 10940 10942 10944 10943 10942 10942 10943 10943 10943 10943 10942 10941 10942 10945 10947 10948 10949 10950 10951 10952 10953 10954 10955 10956 10956 10957 10957 10957 10958 10959 10959 10960 10960 10960 10961 10961 10961 10961 10962 10962 10962 10962 10961 10961 10960 10960 10959 10959 10959 10959 10959 10958 10958 10958 10958 10957 10956 10955 10955 10955 10956 10956 10955 10955 10954 10953 10951 10950 10950 10950 10950 10950
10913 10915 10917 10919 10920 10922 10925 10926 10927 10929 10930 10930 10932 10934 10936 10937 10936 10934 10933 10934 10934 10934 10934 10933 10933 10934 10936 10937 10939 10941 10942 10943 10944 10945 10946 10947 10948 10948 10949 10949 10949 10949 10950 10951 10951 10952 10953 10953 10953 10953 10954 10954 10954 10954 10954 10954 10953 10952 10952 10951 10951 10950 10950 10950 10949 10948 10948 10948 10948 10946 10945 10946 10946 10946 10946 10946 10945 10944 10944 10943 10942 10941 10940 10940 10939
10906 10908 10910 10911 10912 10914 10917 10918 10919 10921 10922 10923 10925 10927 10927 10928 10928 10926 10925 10925 10925 10926 10926 10925 10926 10928 10927 10928 10931 10933 10934 10934 10935 10936 10937 10938 10938 10939 10939 10939 10939 10940 10940 10941 10942 10942 10943 10944 10945 10945 10945 10946 10946 10945 10945 10945 10945 10944 10943 10943 10942 10941 10940 10940 10940 10939 10938 10938 10938 10936 10935 10936 10936 10934 10934 10935 10934 10934 10934 10933 10932 10931 10930 10929 10928
10898 10900 10902 10903 10905 10907 10909 10909 10911 10912 10914 10915 10917 10919 10919 10920 10920 10919 10918 10917 10917 10918 10918 10918 10919 10920 10919 10918 10921 10923 10924 10924 10925 10926 10927 10927 10928 10929 10929 10929 10929 10930 10930 10931 10931 10932 10932 10934 10934 10935 10935 10935 10935 10935 10935 10935 10935 10935 10935 10934 10933 10932 10931 10931 10930 10930 10929 10928 10928 10926 10925 10925 10925 10924 10924 10924 10923 10923 10922 10922 10921 10921 10920 10918 10917
10890 10892 10894 10895 10897 10899 10901 10901 10902 10904 10905 10906 10908 10910 10910 10911 10912 10911 10910 10910 10909 10909 10910 10909 10910 10911 10910 10910 10910 10912 10913 10914 10915 10916 10917 10917 10917 10918 10918 10919 10919 10919 10919 10920 10920 10921 10922 10923 10923 10924 10924 10924 10924 10925 10925 10924 10924 10924 10924 10924 10923 10922 10921 10920 10920 10920 10920 10918 10918 10916 10915 10914 10913 10913 10913 10913 10912 10912 10911 10910 10909 10909 10908 10907 10905
10882 10884 10885 10887 10889 10891 10893 10894 10895 10896 10897 10898 10899 10900 10901 10902 10902 10902 10902 10901 10901 10901 10901 10901 10901 10902 10902 10901 10901 10902 10903 10904 10904 10905 10906 10907 10907 10908 10907 10908 10908 10908 10908 10908 10909 10910 10911 10912 10913 10913 10913 10913 10913 10913 10913 10913 10913 10913 10913 10913 10912 10911 10911 10910 10909 10909 10909 10908 10908 10907 10905 10904 10902 10901 10901 10901 10901 10900 10899 10898 10898 10897 10896 10895 10893
10873 10875 10877 10878 10880 10882 10884 10886 10887 10888 10888 10889 10890 10890 10891 10891 10892 10892 10892 10892 10891 10891 10891 10892 10892 10892 10892 10892 10892 10892 10892 10893 10893 10894 10895 10896 10897 10897 10897 10897 10897 10897 10897 10898 10898 10899 10900 10901 10901 10902 10902 10902 10902 10902 10901 10901 10901 10901 10901 10901 10900 10900 10899 10898 10898 10897 10896 10896 10896 10896 10895 10893 10892 10891 10890 10889 10889 10889 10888 10887 10886 10886 10885 10883 10882
10863 10866 10867 10869 10871 10873 10874 10876 10878 10879 10880 10880 10880 10881 10881 10881 10882 10882 10882 10882 10882 10881 10881 10881 10882 10882 10882 10882 10882 10882 10882 10882 10882 10883 10883 10884 10885 10886 10886 10886 10886 10886 10886 10887 10887 10888 10888 10889 10890 10890 10890 10890 10890 10890 10890 10889 10889 10888 10888 10888 10887 10887 10887 10886 10885 10884 10883 10882 10882 10882 10881 10881 10880 10880 10879 10878 10877 10877 10876 10875 10874 10874 10873 10871 10869
10853 10856 10858 10860 10861 10863 10864 10866 10868 10869 10870 10871 10871 10871 10872 10871 10872 10872 10872 10872 10871 10871 10871 10871 10871 10871 10871 10871 10871 10871 10871 10871 10871 10871 10872 10872 10873 10873 10874 10874 10874 10874 10874 10874 10874 10875 10875 10876 10877 10877 10877 10877 10877 10877 10877 10877 10877 10876 10876 10875 10875 10874 10874 10873 10872 10872 10871 10870 10869 10868 10868 10867 10867 10866 10865 10864 10863 10863 10862 10861 10860 10859 10859 10857 10855
10843 10845 10847 10849 10850 10851 10853 10854 10856 10857 10858 10859 10860 10861 10861 10861 10861 10861 10861 10861 10861 10860 10860 10860 10860 10860 10859 10859 10860 10860 10860 10860 10860 10859 10859 10859 10860 10860 10860 10860 10861 10861 10861 10861 10861 10861 10861 10861 10862 10862 10862 10863 10863 10863 10863 10863 10863 10863 10862 10862 10862 10862 10861 10861 10860 10859 10858 10858 10857 10856 10855 10854 10853 10852 10851 10849 10849 10848 10847 10846 10845 10844 10844 10843 10841
10831 10833 10835 10837 10838 10840 10841 10842 10843 10845 10846 10847 10848 10849 10849 10850 10850 10850 10850 10850 10849 10849 10849 10848 10848 10848 10848 10848 10848 10848 10847 10847 10847 10847 10847 10847 10847 10847 10847 10847 10847 10848 10848 10848 10848 10848 10848 10848 10848 10848 10848 10848 10848 10848 10847 10848 10847 10847 10847 10847 10847 10847 10847 10846 10846 10845 10844 10844 10843 10842 10841 10840 10839 10838 10837 10835 10834 10834 10832 10831 10831 10830 10830 10829 10827
10820 10822 10823 10825 10827 10828 10829 10830 10831 10832 10833 10834 10835 10836 10836 10837 10837 10838 10838 10838 10838 10837 10836 10836 10835 10835 10835 10835 10835 10835 10834 10834 10834 10834 10834 10834 10834 10834 10833 10834 10834 10834 10834 10834 10834 10834 10834 10835 10835 10835 10834 10834 10834 10833 10833 10832 10832 10832 10831 10831 10831 10831 10831 10830 10830 10829 10828 10828 10827 10826 10825 10824 10823 10822 10821 10820 10819 10818 10817 10816 10816 10815 10814 10813 10812
10810 10811 10812 10814 10815 10816 10817 10819 10819 10820 10821 10821 10822 10823 10823 10823 10823 10824 10824 10824 10824 10824 10823 10822 10821 10821 10821 10821 10821 10821 10821 10821 10821 10821 10820 10820 10820 10820 10820 10820 10820 10820 10820 10820 10820 10820 10820 10820 10820 10820 10819 10819 10819 10819 10819 10819 10818 10818 10817 10817 10816 10816 10815 10815 10814 10813 10812 10812 10810 10809 10808 10807 10806 10805 10804 10803 10802 10801 10800 10799 10799 10798 10797 10796 10795
10799 10800 10801 10802 10803 10804 10805 10806 10807 10807 10808 10808 10808 10809 10809 10810 10810 10810 10809 10809 10809 10809 10809 10809 10807 10807 10807 10808 10808 10808 10809 10809 10808 10808 10807 10806 10806 10806 10806 10806 10806 10806 10806 10806 10805 10805 10805 10805 10805 10804 10804 10804 10804 10804 10804 10804 10803 10803 10802 10802 10801 10801 10800 10799 10798 10798 10797 10796 10795 10794 10792 10791 10790 10788 10787 10786 10785 10784 10783 10782 10781 10780 10779 10778 10777
10786 10787 10788 10789 10790 10792 10792 10793 10793 10794 10794 10795 10795 10795 10795 10795 10795 10795 10795 10794 10794 10793 10794 10793 10793 10792 10792 10792 10792 10793 10794 10794 10793 10793 10793 10793 10793 10793 10792 10792 10792 10792 10792 10791 10790 10790 10790 10789 10788 10788 10788 10788 10787 10787 10787 10787 10787 10786 10786 10785 10785 10784 10783 10782 10782 10781 10780 10780 10779 10777 10776 10775 10773 10771 10770 10769 10768 10766 10765 10764 10763 10761 10760 10759 10758
10774 10775 10775 10776 10777 10778 10779 10780 10780 10780 10781 10781 10781 10781 10781 10781 10781 10780 10780 10779 10778 10778 10777 10777 10776 10776 10777 10777 10776 10776 10777 10776 10775 10775 10776 10777 10777 10778 10777 10776 10777 10777 10776 10776 10775 10774 10774 10773 10772 10771 10771 10771 10770 10770 10769 10769 10769 10768 10768 10768 10767 10766 10765 10765 10764 10763 10762 10761 10760 10758 10757 10756 10754 10753 10752 10750 10749 10747 10746 10744 10743 10742 10740 10739 10737
10763 10763 10764 10764 10765 10765 10766 10766 10767 10767 10767 10767 10767 10767 10766 10765 10765 10764 10764 10763 10762 10761 10761 10760 10759 10759 10761 10762 10761 10760 10759 10758 10757 10757 10757 10758 10760 10761 10760 10758 10758 10759 10759 10758 10757 10756 10755 10755 10754 10753 10753 10753 10753 10752 10751 10751 10750 10750 10750 10749 10749 10748 10747 10746 10745 10744 10742 10741 10740 10739 10737 10736 10735 10733 10732 10730 10728 10726 10724 10723 10721 10720 10718 10717 10715
10751 10752 10752 10752 10753 10753 10753 10753 10753 10752 10752 10752 10752 10751 10750 10749 10748 10748 10747 10746 10745 10744 10744 10743 10741 10741 10743 10745 10744 10743 10742 10741 10740 10739 10738 10738 10740 10742 10742 10741 10740 10740 10739 10739 10738 10736 10735 10735 10734 10734 10733 10733 10733 10733 10732 10730 10730 10730 10730 10730 10729 10728 10727 10727 10726 10724 10722 10720 10719 10718 10717 10716 10714 10713 10711 10709 10707 10705 10704 10702 10700 10698 10696 10695 10693
10738 10739 10739 10739 10740 10740 10740 10740 10739 10739 10738 10737 10736 10735 10734 10733 10732 10731 10730 10729 10728 10727 10726 10725 10724 10723 10724 10726 10726 10724 10724 10723 10722 10720 10719 10718 10719 10721 10722 10721 10720 10720 10719 10719 10719 10718 10716 10715 10715 10715 10714 10713 10712 10711 10710 10709 10709 10709 10709 10709 10708 10706 10706 10705 10705 10703 10700 10698 10696 10695 10695 10694 10692 10691 10689 10687 10686 10684 10683 10681 10679 10677 10675 10673 10672
10725 10726 10726 10726 10726 10726 10726 10726 10725 10724 10723 10722 10721 10719 10718 10717 10716 10715 10713 10712 10711 10709 10708 10707 10706 10704 10704 10706 10706 10705 10704 10703 10702 10700 10699 10698 10699 10700 10700 10699 10698 10698 10698 10698 10699 10698 10697 10696 10695 10694 10693 10692 10691 10689 10688 10688 10688 10687 10687 10686 10686 10684 10682 10682 10682 10681 10677 10674 10672 10672 10671 10670 10668 10667 10665 10664 10662 10660 10659 10657 10655 10653 10651 10649 10648
10712 10713 10713 10713 10712 10712 10712 10711 10710 10709 10708 10706 10705 10704 10702 10701 10699 10698 10697 10695 10694 10692 10690 10689 10687 10686 10685 10685 10685 10684 10683 10682 10682 10680 10678 10677 10677 10677 10676 10675 10674 10675 10675 10675 10675 10676 10676 10675 10674 10672 10670 10669 10668 10666 10665 10665 10665 10665 10663 10662 10661 10660 10659 10657 10657 10656 10654 10651 10649 10648 10647 10646 10645 10644 10642 10641 10639 10636 10635 10633 10631 10628 10626 10624 10622
10700 10700 10700 10699 10698 10697 10696 10695 10694 10692 10691 10689 10688 10686 10685 10684 10683 10681 10679 10678 10676 10674 10672 10670 10669 10667 10666 10665 10665 10664 10662 10660 10660 10659 10658 10655 10655 10655 10654 10652 10651 10651 10652 10652 10652 10652 10653 10653 10652 10650 10647 10644 10643 10642 10641 10640 10639 10639 10638 10636 10635 10634 10634 10632 10630 10629 10628 10626 10624 10624 10623 10623 10622 10620 10619 10617 10615 10613 10611 10609 10607 10604 10602 10600 10597
10687 10687 10686 10685 10684 10682 10680 10679 10677 10675 10673 10672 10670 10668 10667 10665 10664 10662 10661 10659 10657 10655 10653 10651 10649 10648 10646 10645 10644 10642 10640 10638 10637 10636 10634 10632 10631 10632 10630 10628 10627 10627 10628 10627 10627 10627 10628 10629 10629 10627 10623 10620 10618 10617 10616 10614 10613 10613 10612 10610 10608 10607 10606 10604 10603 10602 10601 10600 10599 10598 10598 10598 10597 10596 10594 10593 10591 10589 10586 10584 10582 10580 10578 10575 10573
10674 10673 10671 10670 10668 10666 10664 10662 10660 10658 10656 10654 10652 10650 10648 10646 10645 10643 10641 10639 10638 10636 10633 10631 10629 10627 10625 10624 10622 10620 10617 10615 10614 10612 10610 10608 10607 10607 10605 10603 10602 10601 10601 10601 10600 10601 10601 10601 10600 10598 10596 10594 10593 10592 10590 10588 10588 10587 10585 10583 10580 10578 10577 10577 10578 10577 10575 10574 10573 10573 10573 10572 10571 10570 10569 10567 10565 10563 10560 10558 10556 10554 10552 10550 10548
10659 10658 10656 10653 10651 10649 10647 10645 10643 10641 10638 10636 10634 10632 10630 10628 10626 10624 10622 10619 10617 10615 10613 10610 10608 10606 10603 10601 10599 10597 10594 10591 10590 10588 10586 10584 10583 10581 10580 10578 10576 10575 10574 10574 10573 10573 10573 10572 10569 10566 10565 10565 10566 10564 10563 10561 10560 10558 10557 10555 10552 10550 10549 10550 10551 10551 10550 10549 10548 10548 10547 10546 10545 10543 10542 10540 10538 10536 10535 10533 10531 10529 10527 10525 10524
10644 10642 10640 10638 10635 10633 10631 10628 10626 10623 10621 10618 10616 10614 10612 10610 10608 10605 10603 10599 10597 10595 10592 10589 10586 10584 10581 10578 10575 10572 10569 10567 10565 10563 10561 10559 10557 10556 10554 10552 10549 10548 10548 10548 10546 10544 10542 10541 10538 10536 10535 10535 10535 10533 10532 10531 10531 10530 10529 10528 10526 10523 10522 10523 10524 10524 10524 10524 10523 10522 10521 10520 10519 10517 10516 10514 10513 10512 10510 10508 10506 10505 10503 10502 10500
10630 10628 10625 10622 10620 10617 10614 10611 10609 10606 10604 10601 10599 10597 10595 10592 10589 10586 10583 10579 10576 10573 10571 10568 10565 10562 10558 10555 10551 10548 10545 10542 10540 10537 10535 10533 10531 10529 10527 10525 10523 10522 10522 10521 10519 10517 10513 10511 10509 10508 10507 10506 10504 10502 10501 10502 10503 10504 10504 10504 10503 10500 10498 10498 10498 10499 10499 10499 10498 10497 10496 10495 10494 10493 10492 10491 10490 10489 10487 10486 10484 10483 10481 10480 10479
10615 10613 10610 10607 10604 10601 10598 10595 10592 10590 10587 10585 10582 10580 10577 10574 10570 10566 10563 10559 10555 10552 10549 10547 10544 10540 10536 10532 10529 10526 10523 10520 10517 10513 10510 10508 10506 10504 10502 10500 10498 10498 10497 10495 10493 10491 10488 10486 10484 10481 10478 10477 10476 10476 10476 10478 10478 10479 10480 10481 10482 10480 10477 10476 10475 10476 10476 10475 10474 10474 10472 10471 10471 10470 10469 10468 10468 10466 10466 10464 10463 10462 10461 10459 10458